Location: Eschentzwiller
(47.7125°N, 7.3981°E)
Time: 01:20:38
(UTC+00:00)

Cosmos 1758 Rocket - Pass Details

Date: 27 October 2020
Orbit: 601 x 637 km, 82.5° (Epoch: 26 November)

Event Time Altitude Azimuth Distance (km) Brightness Sun altitude
Rises 16:52:46 0° 349° (N) 2,915 7.0 -6.1°
Reaches altitude 10° 16:55:01 10° 349° (N) 1,998 6.2 -6.5°
Maximum altitude 16:59:27 84° 264° (W) 625 3.7 -7.2°
Drops below altitude 10° 17:03:47 10° 174° (S) 1,959 6.2 -7.9°
Sets 17:05:59 0° 174° (S) 2,853 7.0 -8.3°
